Landsat 5 - Orbit

View from above orbital plane
View from above orbital plane
View from above satellite
View from above satellite

Ground track
Ground track

The orbit data is extracted from the following two-line orbital elements,

1 14780U 84021A   13142.23257349  .00001659  00000-0  18327-3 0  9716
2 14780 098.0952 207.4476 0093755 012.0350 348.3064 14.85750010554491
Epoch (UTC): 22 May 2013 05:34:54
Eccentricity: 0.0093755
inclination: 98.0952°
perigee height: 546 km
apogee height: 677 km
right ascension of ascending node: 207.4476°
argument of perigee: 12.0350°
revolutions per day: 14.85750010
mean anomaly at epoch: 348.3064°
orbit number at epoch: 55449

The dashed part of the orbit path shows where the satellite is in the earth's shadow,  

Developed and maintained by Chris Peat, Heavens-Above GmbH. Please read the updated FAQ before sending e-mail. Imprint. DLR